TimeEST,TemperatureF,Dew PointF,Humidity,Sea Level PressureIn,VisibilityMPH,Wind Direction,Wind SpeedMPH,Gust SpeedMPH,PrecipitationIn,Events,Conditions,WindDirDegrees,DateUTC
12:53 AM,30.0,23.0,75,30.14,10.0,ESE,6.9,-,N/A,,Clear,120,2012-11-06 05:53:00
1:53 AM,27.0,21.9,81,30.13,10.0,East,3.5,-,N/A,,Clear,100,2012-11-06 06:53:00
2:53 AM,26.1,21.9,84,30.14,8.0,Calm,Calm,-,N/A,,Clear,0,2012-11-06 07:53:00
3:53 AM,24.1,19.9,84,30.12,8.0,SSE,5.8,-,N/A,,Clear,160,2012-11-06 08:53:00
4:53 AM,25.0,21.0,85,30.10,8.0,ESE,4.6,-,N/A,,Clear,120,2012-11-06 09:53:00
5:53 AM,26.1,21.9,84,30.09,8.0,SE,3.5,-,N/A,,Clear,130,2012-11-06 10:53:00
6:53 AM,21.9,19.0,89,30.10,7.0,East,5.8,-,N/A,,Clear,90,2012-11-06 11:53:00
7:53 AM,26.1,21.9,84,30.10,5.0,ESE,5.8,-,N/A,,Clear,110,2012-11-06 12:53:00
8:53 AM,30.9,26.1,82,30.09,6.0,SE,9.2,-,N/A,,Haze,130,2012-11-06 13:53:00
9:53 AM,36.0,28.9,76,30.08,7.0,SSE,6.9,-,N/A,,Clear,150,2012-11-06 14:53:00
10:53 AM,39.9,28.9,65,30.07,9.0,SE,5.8,-,N/A,,Clear,130,2012-11-06 15:53:00
11:53 AM,44.1,30.0,58,30.04,10.0,SE,8.1,-,N/A,,Clear,140,2012-11-06 16:53:00
12:53 PM,46.0,30.0,54,30.01,10.0,SSW,9.2,-,N/A,,Mostly Cloudy,200,2012-11-06 17:53:00
1:53 PM,46.0,28.0,50,29.99,10.0,South,9.2,-,N/A,,Clear,190,2012-11-06 18:53:00
2:53 PM,45.0,27.0,49,29.97,10.0,Variable,4.6,-,N/A,,Mostly Cloudy,0,2012-11-06 19:53:00
3:53 PM,46.0,28.9,51,29.96,10.0,SE,9.2,-,N/A,,Overcast,130,2012-11-06 20:53:00
4:53 PM,45.0,28.9,53,29.96,10.0,SSE,5.8,-,N/A,,Overcast,150,2012-11-06 21:53:00
5:53 PM,44.1,30.0,58,29.95,10.0,ESE,4.6,-,N/A,,Overcast,120,2012-11-06 22:53:00
6:53 PM,44.1,30.0,58,29.96,10.0,ESE,5.8,-,N/A,,Overcast,120,2012-11-06 23:53:00
7:53 PM,43.0,30.0,60,29.96,10.0,ESE,10.4,-,N/A,,Overcast,120,2012-11-07 00:53:00
8:53 PM,41.0,30.0,65,29.96,10.0,ESE,5.8,-,N/A,,Overcast,120,2012-11-07 01:53:00
9:53 PM,41.0,28.9,62,29.96,10.0,ESE,6.9,-,N/A,,Overcast,120,2012-11-07 02:53:00
10:53 PM,41.0,28.9,62,29.94,10.0,ESE,8.1,-,N/A,,Overcast,110,2012-11-07 03:53:00
11:53 PM,39.0,28.9,67,29.94,10.0,ESE,6.9,-,N/A,,Overcast,110,2012-11-07 04:53:00